Zurück zum Katalog

THOR ABLESTAR DEB

AktivLEO
NORAD 410·DEBRIS·🇺🇸 United States

Gestartet Jun 29, 1961 von Cape Canaveral Space Force Station

Loading…

Nächste Überflüge (nächste 24 Stunden)

TLE

AktuellSource: Space-Track

Epoche: Sep 14, 2026, 13:58 UTC

1 00410U 61015EK  26257.58258556  .00000019  00000-0  95176-4 0  9996
2 00410  66.6930 184.8011 0020445 295.4167 239.2336 13.76626195272374

Verfolge THOR ABLESTAR DEB in Echtzeit mit AllMySat

Download on the App Store